Regional Weather Roundup
Issued by NWS Charleston, SC

Current Version | Previous Version | Graphics & Text | Print | Product List | Glossary On
Versions: 1 2 3 4 5 6 7 8 9 10 11 12 13 14 15 16 17 18 19 20 21 22 23 24 25 26 27 28 29 30 31 32 33 34 35 36 37 38 39 40 41 42 43 44 45 46 47 48 49 50
000
ASUS42 KCHS 110413
RWRCHS

REGIONAL WEATHER ROUNDUP
NATIONAL WEATHER SERVICE CHARLESTON SC
1100 PM EST WED FEB 10 2016

NOTE: "FAIR" INDICATES FEW OR NO CLOUDS BELOW 12,000 FEET WITH NO
SIGNIFICANT WEATHER AND/OR OBSTRUCTIONS TO VISIBILITY.

NOT ALL STATIONS ARE QUALITY CONTROLLED BY THE NATIONAL
WEATHER SERVICE. USE DATA WITH CAUTION...ESPECIALLY
DEWPOINT OBSERVATIONS.

SCZ027-030-031-034>040-042>050-110500-
...SOUTHEAST SOUTH CAROLINA...

CITY           SKY/WX    TMP DP  RH WIND       PRES   REMARKS
N CHARLESTON   CLEAR     33  16  49 W3        30.15R
WATERFRONT PRK   N/A     37  19  48 VRB3      29.99S
MOUNT PLEASANT FAIR      36  18  48 W7        30.16R WCI  30
JOHNS ISLAND   FAIR      34  18  51 CALM      30.16R
PINOPOLIS        N/A     36  19  51 SW10      30.06R WCI  28
MONCKS CORNER  FAIR      28  14  54 SW3       30.14S
SUMMERVILLE    FAIR      32  21  64 CALM      30.16R
BEAUFORT MCAS  MOCLDY    36  18  48 SW9       30.17S WCI  29
BEAUFORT ARPT  MOCLDY    39  18  41 SW12G17   30.16S WCI  32
HILTON HEAD IS CLEAR     39  19  45 SW7       30.19S WCI  34
WALTERBORO     CLEAR     34  19  55 SW3       30.16S
ALLENDALE      FAIR      30  21  69 CALM      30.15S

...SOUTHERN MIDLANDS AND PEE DEE...

CITY           SKY/WX    TMP DP  RH WIND       PRES   REMARKS
GEORGETOWN     FAIR      28  19  69 SW3       30.15R
KINGSTREE      FAIR      32  12  43 SW5       30.13R WCI  27
ORANGEBURG     CLEAR     31  14  49 SW7       30.13S WCI  24
BARNWELL       FAIR      32  18  55 CALM      30.16R
AIKEN          FAIR      30  12  47 W7        30.16R WCI  23
MANNING        FAIR      28  18  64 SW3       30.13S
COLUMBIA       CLEAR     31  12  45 W10       30.12R WCI  22
SUMTER         CLEAR     30  11  45 W7        30.10R WCI  23
FLORENCE       CLEAR     31  14  49 W8        30.11R WCI  23
MYRTLE BEACH   CLEAR     34  10  37 W9        30.14R WCI  26
N MYRTLE BEACH CLEAR     33  14  45 W5        30.11R WCI  29

$$

GAZ063-065-086>088-099>101-113>116-118-119-134>141-150-110500-
...SOUTHEAST GEORGIA...

CITY           SKY/WX    TMP DP  RH WIND       PRES   REMARKS
SAVANNAH ARPT  CLEAR     34  18  52 W5        30.19S WCI  30
HUNTER AAF     CLEAR     33  20  58 SW5       30.17R WCI  29
FORT STEWART   CLEAR     34  20  55 SW2       30.17R
STATESBORO     CLEAR     39  11  31 W6        30.18R WCI  35
SYLVANIA       CLEAR     32  24  71 CALM      30.17S
CLAXTON        FAIR      37  22  54 SW6       30.19R WCI  32

...CSRA...CENTRAL AND FAR SOUTHEAST GEORGIA...

CITY           SKY/WX    TMP DP  RH WIND       PRES   REMARKS
THOMSON        CLOUDY    37  16  43 W8        30.20R WCI  30
AUGUSTA-BUSH   CLOUDY    36  13  38 NW10      30.17R WCI  28
AUGUSTA-DANIEL NOT AVBL
SWAINSBORO     FAIR      34  18  51 W3        30.19R
VIDALIA        CLEAR     36  19  51 W7        30.19R WCI  30
EASTMAN        FAIR      38  16  40 W5        30.22R WCI  34
HAZLEHURST     FAIR      36  24  61 CALM      30.19R
ALMA           CLEAR     34  21  59 CALM      30.20S
WAYCROSS       CLEAR     35  26  69 SW5       30.20F WCI  31
JESUP          FAIR      34  27  75 CALM      30.20S
BAXLEY         FAIR      36  23  60 CALM      30.19R
BRUNSWICK      CLEAR     39  25  56 SW8       30.21F WCI  34
SAINT SIMONS   CLEAR     39  23  52 SW9       30.20F WCI  33

$$

SCZ027-028-034-036>038-045-046-048>050-GAZ119-141-110500-
...LAKE AND SUPPLEMENTAL COASTAL OBSERVATIONS...

STATION/POSITION TIME  TEMP    WIND        PRES    WAVE   SWELL
                       AIR SEA DIR/SP/G            HT/PER HT/PER/DIR
                 (UTC) (F)     (DEG/KT/KT) (MB)    (FT/S) (FT/S/D)
WINYAH BAY       NOT AVBL
LAKE MURRAY      0300   35     270/ 15/ 21 1018.6R
ACE BASIN NERRS  NOT AVBL
FORT PULASKI     0300   39 50              1022.4
SAPELO ISLAND    0300   40     230/  8     1023.0S

$$

ANZ835-935-AMZ111-154-330-350-352-354-370-450-454-472-110500-
...C-MAN AND BUOY OBSERVATIONS...

STATION/POSITION TIME  TEMP    WIND        PRES    WAVE   SWELL
                       AIR SEA DIR/SP/G            HT/PER HT/PER/DIR
                 (UTC) (F)     (DEG/KT/KT) (MB)    (FT/S) (FT/S/D)
BUOY 41004       0350   45 63  270/ 29/ 35 1019.4R   8/ 8   2/13
BUOY 41008       0350   45 53  260/ 17/ 21 1022.2F   3/ 4
FOLLY BEACH CMAN 0300   38     250/  7/ 10 1021.1R
CAPERS NEARSHORE 0308   41     280/ 19/ 25 1020.3R
FRIPP NEARSHORE  0300   43     280/ 19/ 23 1020.5S


STATION/POSITION TIME  TEMP    WIND        PRES    WAVE   SWELL
                       AIR SEA DIR/SP/G            HT/PER HT/PER/DIR
                 (UTC) (F)     (DEG/KT/KT) (MB)    (FT/S) (FT/S/D)
5E ST. MARYS GA  0321      55                N/A     2/15   2/ 90/15
FRYING PAN BUOY  0300   43 62  260/ 25/ 33 1018.8R
BUOY 41025       0350   43 72  280/ 25/ 31 1014.2R   6/ 5   3/110/13
CAPE LOOKOUT NC  NOT AVBL
BUOY 41002       0350   54 68  280/ 29/ 35   N/A    17/10  11/270/10
BUOY 41010       0320   61 72              1021.8R
ST AUGUSTINE FL  0400   40 55  240/  5/  6 1024.8F


$$



USA.gov is the U.S. government's official web portal to all federal, state and local government web resources and services.